Home   Weather   Jackson   Past weeks

Flag for USA Past Weather in Jackson, Wyoming, USA — Yesterday and Last 2 Weeks

34 °F


Feels Like: 31 °F
Forecast: 35 / 62 °F
Wind: 3 mph from Northeast

Location: Jackson Hole

Current Time: Oct 27, 2016 at 1:17:56 AM

Latest Report: Oct 27, 2016 at 12:55 AM

Visibility: 10 mi

Pressure: 30.29 "Hg (23.90 "Hg at 1901m altitude)

Humidity: 100%

Dew Point: 34 °F

Location of JacksonLocation

Past Weather in Jackson — Graph


Jackson Temperature Yesterday

Maximum temperature yesterday: 61 °F (at 3:15 PM)
Minimum temperature yesterday: 36 °F (at 1:55 AM)
Average temperature yesterday: 44 °F

High & Low Weather Summary for the Past Weeks

High64 °F (Oct 23, 3:50 PM)100% (Oct 12, 3:35 AM)30.52 "Hg (Oct 12, 3:35 AM)
Low21 °F (Oct 12, 5:55 AM)16% (Oct 12, 5:35 PM)29.60 "Hg (Oct 17, 4:35 AM)
Average39 °F77%30.12 "Hg
* Reported Oct 12 12:15 AM — Oct 27 12:15 AM, Jackson, Weather by CustomWeather, © 2016

Note: Actual official high and low records may vary slightly from our data, if they occured in-between our weather recording intervals... More about our weather records


Jackson Weather History for the Previous 24 Hours

Scroll right to see more
Time TempWeatherWind HumidityBarometerVisibility
12:15 AM
Thu, Oct 27
36 °FClear.7 mph93%30.28 "Hg10 mi
11:55 PM
Wed, Oct 26
36 °FClear.7 mph93%30.28 "Hg10 mi
11:35 PM36 °FClear.5 mph93%30.28 "Hg10 mi
11:15 PM36 °FClear.5 mph100%30.28 "Hg7 mi
10:55 PM36 °FClear.No wind100%30.28 "Hg10 mi
10:35 PM39 °FClear.No wind93%30.28 "Hg10 mi
10:15 PM39 °FClear.No wind93%30.27 "Hg10 mi
9:55 PM43 °FClear.No wind81%30.28 "Hg10 mi
9:35 PM43 °FClear.No wind81%30.27 "Hg10 mi
9:15 PM43 °FClear.No wind87%30.27 "Hg10 mi
8:55 PM45 °FClear.No wind81%30.28 "Hg10 mi
8:35 PM46 °FClear.No wind76%30.28 "Hg10 mi
7:55 PM45 °FClear.No wind81%30.28 "Hg10 mi
7:35 PM50 °FClear.No wind67%30.27 "Hg10 mi
7:15 PM52 °FClear.No wind67%30.27 "Hg10 mi
6:55 PM52 °FClear.No wind67%30.28 "Hg10 mi
6:35 PM54 °FClear.No wind63%30.27 "Hg10 mi
6:15 PM54 °FSunny.3 mph58%30.27 "Hg10 mi
5:55 PM57 °FSunny.No wind55%30.27 "Hg10 mi
5:35 PM57 °FSunny.5 mph55%30.27 "Hg10 mi
5:15 PM59 °FSunny.9 mph48%30.27 "Hg10 mi
4:55 PM61 °FSunny.12 mph45%30.27 "Hg10 mi
4:35 PM61 °FPassing clouds.13 mph45%30.27 "Hg10 mi
4:15 PM59 °FPartly sunny.13 mph48%30.27 "Hg10 mi
3:55 PM61 °FBroken clouds.13 mph45%30.27 "Hg10 mi
3:35 PM61 °FScattered clouds.12 mph45%30.27 "Hg10 mi
3:15 PM61 °FSunny.10 mph48%30.28 "Hg10 mi
2:55 PM59 °FSunny.12 mph51%30.28 "Hg10 mi
2:35 PM59 °FSunny.15 mph55%30.29 "Hg10 mi
2:15 PM57 °FSunny.14 mph63%30.29 "Hg10 mi
1:55 PM55 °FSunny.12 mph72%30.30 "Hg10 mi
1:35 PM54 °FSunny.7 mph82%30.31 "Hg10 mi
1:15 PM48 °FSunny.No wind87%30.32 "Hg10 mi
12:55 PM46 °FSunny.No wind93%30.33 "Hg10 mi
12:35 PM45 °FPassing clouds.No wind93%30.34 "Hg10 mi
12:15 PM43 °FPartly sunny.3 mph93%30.35 "Hg10 mi
11:55 AM41 °FLow clouds.5 mph100%30.35 "Hg10 mi
11:35 AM39 °FLow clouds.5 mph100%30.36 "Hg10 mi
11:15 AM39 °FLow clouds.5 mph100%30.36 "Hg10 mi
10:55 AM39 °FLow clouds.5 mph100%30.36 "Hg9 mi
10:35 AM39 °FLow clouds.No wind93%30.36 "Hg2 mi
10:15 AM37 °FLow clouds.3 mph100%30.36 "Hg1 mi
9:55 AM37 °FLow clouds.No wind100%30.37 "Hg1 mi
9:35 AM37 °FLow clouds.No wind100%30.37 "Hg0 mi
9:15 AM37 °FLow clouds.No wind100%30.37 "Hg0 mi
8:55 AM37 °FLow clouds.No wind100%30.36 "Hg0 mi
8:35 AM37 °FLow clouds.3 mph100%30.35 "Hg0 mi
8:15 AM37 °FLow clouds.No wind100%30.35 "Hg0 mi
7:55 AM37 °FLow clouds.No wind100%30.34 "Hg0 mi
7:35 AM37 °FLow clouds.No wind93%30.34 "Hg0 mi
7:15 AM37 °FLow clouds.No wind93%30.34 "Hg0 mi
6:55 AM37 °FLow clouds.No wind93%30.34 "Hg1 mi
6:35 AM37 °FLow clouds.No wind100%30.34 "Hg0 mi
6:15 AM37 °FLow clouds.3 mph100%30.34 "Hg0 mi
5:55 AM37 °FLow clouds.No wind93%30.32 "Hg0 mi
5:35 AM37 °FLow clouds.No wind93%30.33 "Hg0 mi
5:15 AM37 °FLow clouds.No wind93%30.33 "Hg0 mi
4:55 AM37 °FLow clouds.No wind100%30.33 "Hg0 mi
4:35 AM37 °FLow clouds.No wind100%30.32 "Hg0 mi
4:15 AM37 °FLow clouds.No wind93%30.32 "Hg0 mi
3:55 AM36 °FLow clouds.No wind100%30.32 "Hg0 mi
3:35 AM37 °FLow clouds.No wind100%30.32 "Hg0 mi
3:15 AM37 °FLow clouds.No wind100%30.32 "Hg0 mi
2:55 AM37 °FLow clouds.No wind100%30.32 "Hg0 mi
2:35 AM36 °FLow clouds.No wind100%30.31 "Hg1 mi
2:15 AM36 °FLow clouds.3 mph93%30.31 "Hg0 mi
1:55 AM36 °FPassing clouds.No wind100%30.31 "Hg4 mi
1:35 AM37 °FClear.No wind93%30.31 "Hg10 mi
1:15 AM37 °FClear.No wind100%30.31 "Hg10 mi
Weather by CustomWeather, © 2016

See weather overviewHow to use our weather pages